Content
SEND FEEDBACK

Daily
Averages
Monthly
Summary
United States of America

CLEARWATER, FLORIDA


Home > North America > United States > Florida
Elevation: 0 feet     Latitude: 28 09N     Longitude: 082 45W

WEATHER
 
SELECT A DAY
Number of Records: 336,136;   Date Range: 1/1/95 - 7/23/14
 
SHARE

PRINT THIS DATA

[ ← Previous Day ]
WEATHER ALMANAC - FEBRUARY 13, 2013
[ Next Day → ]
[ °C ]   °F
Weather ElementAverageHighLow
Temperature72.3 °F81 °F (12:53 pm)61 °F (11:53 pm)
Dewpoint67.3 °F71.6 °F (4:00 pm)54 °F (10:53 pm)
Humidity84.6 %100 % (7:04 am)69 % (12:53 pm)
Barometer29.93 in30.01 in (11:53 pm)29.87 in (3:53 pm)
Wind Speed14.5 mph27.6 mph (6:53 pm)
Wind Gust38 mph (6:53 pm)
Weather ElementAverage
Visibility7.9 mi
Wind DirectionSSW (219.3 °)

Weather ElementTotal
Precipitation---
Cooling Degree Days6 (Base 65)
Growing Degree Days21 (Base 50)
Averaged from 41 records on February 13, 2013
WEATHER CONDITIONS BREAKOUT
WIND DIRECTION BREAKOUT
WEATHER BY HOUR - FEBRUARY 13, 2013
[ °C ]   °F
Local TimeTemperatureDewpointHumidityBarometerVisibilityWind DirectionWind SpeedGust SpeedPrecipitationEventsConditions
1:53 AM71.1 °F69.1 °F93 %29.96 in7.0 miSSW (200°)12.7 mphOvercast
2:22 AM71.6 °F69.8 °F94 %29.94 in7.0 miSouth (190°)10.4 mphScattered Clouds
2:53 AM71.1 °F68.0 °F90 %29.94 in8.0 miSouth (190°)9.2 mphClear
3:46 AM71.6 °F68.0 °F88 %29.93 in8.0 miSouth (190°)12.7 mphScattered Clouds
3:53 AM71.1 °F68.0 °F90 %29.93 in8.0 miSouth (190°)12.7 mphMostly Cloudy
4:26 AM71.6 °F68.0 °F88 %29.93 in9.0 miSSW (200°)11.5 mphScattered Clouds
4:53 AM71.1 °F68.0 °F90 %29.93 in9.0 miSSW (200°)12.7 mphScattered Clouds
5:53 AM70.0 °F68.0 °F93 %29.93 in10.0 miSouth (190°)12.7 mph20.7 mphScattered Clouds
6:03 AM69.8 °F68.0 °F94 %29.93 in10.0 miSSW (200°)10.4 mphMostly Cloudy
6:10 AM71.6 °F68.0 °F88 %29.93 in9.0 miSSW (200°)10.4 mphMostly Cloudy
6:53 AM71.1 °F69.1 °F93 %29.94 in7.0 miSSW (200°)15.0 mphOvercast
7:04 AM69.8 °F69.8 °F100 %29.94 in0.5 miSouth (190°)13.8 mphFogFog
7:13 AM69.8 °F69.8 °F100 %29.94 in1.5 miSSW (200°)11.5 mph19.6 mphOvercast
7:31 AM71.6 °F69.8 °F94 %29.94 in3.0 miSouth (190°)10.4 mphOvercast
7:53 AM71.1 °F69.1 °F93 %29.96 in6.0 miSSW (200°)11.5 mphOvercast
8:53 AM73.0 °F70.0 °F90 %29.96 in7.0 miSouth (190°)12.7 mphOvercast
9:53 AM75.9 °F70.0 °F82 %29.96 in9.0 miSSW (200°)17.3 mphMostly Cloudy
10:42 AM78.8 °F69.8 °F74 %29.96 in10.0 miSSW (200°)19.6 mph26.5 mphScattered Clouds
10:53 AM78.1 °F70.0 °F76 %29.96 in10.0 miSouth (190°)18.4 mphPartly Cloudy
11:02 AM78.8 °F69.8 °F74 %29.95 in10.0 miSSW (200°)20.7 mph27.6 mphMostly Cloudy
11:28 AM78.8 °F69.8 °F74 %29.95 in10.0 miSSW (200°)18.4 mph25.3 mphMostly Cloudy
11:53 AM80.1 °F70.0 °F71 %29.94 in10.0 miSSW (200°)20.7 mph28.8 mphMostly Cloudy
12:53 PM81.0 °F70.0 °F69 %29.92 in10.0 miSSW (200°)20.7 mph27.6 mphScattered Clouds
1:53 PM80.1 °F70.0 °F71 %29.90 in10.0 miSSW (210°)18.4 mph28.8 mphMostly Cloudy
2:53 PM78.1 °F71.1 °F79 %29.88 in10.0 miSW (220°)21.9 mph28.8 mphMostly Cloudy
3:53 PM79.0 °F71.1 °F77 %29.87 in10.0 miSW (220°)20.7 mph31.1 mphMostly Cloudy
4:00 PM78.8 °F71.6 °F78 %29.87 in10.0 miSW (220°)19.6 mph29.9 mphMostly Cloudy
4:38 PM77.0 °F71.6 °F83 %29.87 in10.0 miSW (220°)19.6 mph25.3 mphOvercast
4:45 PM77.0 °F71.6 °F83 %29.87 in10.0 miSSW (210°)13.8 mph25.3 mphOvercast
4:53 PM77.0 °F71.1 °F82 %29.88 in10.0 miSSW (210°)18.4 mph25.3 mphMostly Cloudy
5:38 PM75.2 °F71.6 °F89 %29.88 in9.0 miSW (220°)15.0 mph24.2 mphOvercast
5:53 PM75.0 °F71.1 °F87 %29.88 in9.0 miSW (220°)13.8 mph21.9 mphOvercast
6:46 PM69.8 °F68.0 °F94 %29.91 in1.8 miNW (320°)17.3 mph23.0 mph0.00 inRainHeavy Rain
6:53 PM66.0 °F64.0 °F93 %29.94 in1.2 miNNW (340°)27.6 mph38.0 mphRainHeavy Rain
6:59 PM62.6 °F59.0 °F88 %29.94 in3.0 miNW (320°)21.9 mph36.8 mphRainHeavy Rain
7:11 PM64.4 °F57.2 °F77 %29.95 in3.0 miNNW (340°)16.1 mphRainLight Rain
7:53 PM63.0 °F59.0 °F87 %29.98 in7.0 miNNW (340°)4.6 mphRainLight Rain
8:53 PM63.0 °F55.0 °F75 %29.97 in10.0 miNNE (20°)5.8 mphRainLight Rain
9:53 PM64.0 °F55.0 °F73 %29.98 in10.0 miNNW (330°)4.6 mphOvercast
10:53 PM63.0 °F54.0 °F72 %29.99 in10.0 miNorth (360°)5.8 mphOvercast
11:53 PM61.0 °F55.9 °F83 %30.01 in10.0 miSSE (160°)4.6 mphOvercast
Hourly data recorded from KPIE, located miles away from Clearwater, Florida







STORIES FROM OUR PARTNERS